Weather Roundup
Issued by NWS Chicago, IL

Home | Current Version | Previous Version | Graphics & Text | Print | Product List | Glossary On
Versions: 1 2 3 4 5 6 7 8 9 10 11 12 13 14 15 16 17 18 19 20 21 22 23 24 25 26 27 28 29 30 31 32 33 34 35 36 37 38 39 40 41 42 43 44 45 46 47 48 49 50
000
NZUS59 KLOT 101908
HRRLOT

CHICAGO AREA WEATHER ROUNDUP
NATIONAL WEATHER SERVICE CHICAGO/ROMEOVILLE IL
100 PM CST WED FEB 10 2016

NOTE: "FAIR" INDICATES FEW OR NO CLOUDS BELOW 12,000 FEET WITH NO
SIGNIFICANT WEATHER AND/OR OBSTRUCTIONS TO VISIBILITY.

* THESE STATIONS ARE NOT UNDER NWS QUALITY CONTROL. THEY ALSO MAY NOT
  REPORT WEATHER SUCH AS PRECIPITATION OR FOG.

ILZ005-006-012>014-019>023-102000-
NORTHEAST ILLINOIS

CITY           SKY/WX    TMP DP  RH WIND       PRES   REMARKS
OHARE          PTSUNNY   15   3  59 W13       30.01F WCI   1
MIDWAY         MOSUNNY   17   2  51 W12       30.02F WCI   4
AURORA         PTSUNNY   17   6  62 W13       30.03F WCI   4
LANSING*       CLOUDY    16   4  58 W8        30.02S WCI   6
JOLIET*        PTSUNNY   18   6  58 NW9       30.04F WCI   7
WAUKEGAN       CLOUDY    14   2  58 N8        29.99F WCI   3
DUPAGE AIRPORT MOSUNNY   15   2  56 W14       30.01S WCI   0
WHEELING       MOSUNNY   15   2  56 NW12      30.02F WCI   2
KANKAKEE*      PTSUNNY   17   5  59 W14       30.04F WCI   3
MORRIS*        MOSUNNY   17   4  57 NW13      30.02F WCI   3
LEWIS AIRPORT* MOSUNNY   15   4  62 W14       30.02F WCI   1
$$

WIZ051-052-058>065-066-070>072-102000-
SOUTHEAST WISCONSIN

CITY           SKY/WX    TMP DP  RH WIND       PRES   REMARKS
MILWAUKEE      MOSUNNY   15  -2  46 NW12      30.00F WCI   2
KENOSHA*       PTSUNNY   14   1  56 NW9       30.00F WCI   2
RACINE*        CLOUDY    15  -1  49 W13       30.01F WCI   1
BURLINGTON     PTSUNNY   13   0  55 NW13      29.99F WCI  -1
WAUKESHA       CLOUDY    10   0  61 NW12G18   30.00F WCI  -4
WEST BEND      PTSUNNY   12  -4  48 N13       29.99F WCI  -3
$$

INZ001>003-010>013-019-020-102000-
NORTHWEST INDIANA

CITY           SKY/WX    TMP DP  RH WIND       PRES   REMARKS
GARY*          PTSUNNY   19   3  49 W12       30.02F WCI   7
MICHIGAN CITY* NOT AVBL
RENSSELAER*    NOT AVBL
VALPARAISO     CLOUDY    17   4  56 W8        29.99F WCI   7
$$

LMZ740>746-102000-
SOUTHERN LAKE MICHIGAN

STATION/POSITION TIME  SKY/WX   TEMP WIND        PRES    VSBY
                                AIR  DIR/SP/G
                 (UTC)          (F)  (DEG/KT/KT) (MB)    (MI)
HARRISON CRIB    1800            16  300/ 10/ 12   N/A
BURNHAM HARBOR   1900            17  270/  7/ 15   N/A
CALUMET HARBOR   1800            15  260/  7/ 10 1016.2F
BURNS HARBOR     1800            15  290/ 12/ 15 1017.3S
MICHIGAN CITY    1800            16  270/ 20/ 22   N/A
$$

ABBREVIATIONS USED IN REMARKS
   TC - TEMPERATURE IN CELSIUS
  WCI - WIND CHILL INDEX
   HX - HEAT INDEX
  VSB - VISIBILITY
$$



USA.gov is the U.S. government's official web portal to all federal, state and local government web resources and services.